Printer-friendly version
Follow the MPC on Twitter Follow the MPC on Facebook The MPC blog
Minor Planet Center

MPEC 2000-S36 : 2000 SY2

The following Minor Planet Electronic Circular may be linked-to from your own Web pages, but must not otherwise be redistributed electronically.

A form allowing access to any MPEC is at the bottom of this page.


Read MPEC 2000-S35 Read MPEC 2000-S37


M.P.E.C. 2000-S36                                Issued 2000 Sept. 23, 18:30 UT

     The Minor Planet Electronic Circulars contain information on unusual
         minor planets and routine data on comets.  They are published
   on behalf of Commission 20 of the International Astronomical Union by the
          Minor Planet Center, Smithsonian Astrophysical Observatory,
                          Cambridge, MA 02138, U.S.A.

             Prepared using the Tamkin Foundation Computer Network

                              MPC@CFA.HARVARD.EDU
          URL http://cfa-www.harvard.edu/iau/mpc.html  ISSN 1523-6714

                                   2000 SY2

                           Revision to MPEC 2000-S31

Observations:
     K00S02Y 2 1977 10 07.62442 02 52 17.08 -23 30 37.3          16.0 V      260
     K00S02Y 2 1977 10 07.67304 02 52 05.71 -23 32 45.4                      260

Observer details:
260 Siding Spring-DSS.  Trail located and measured by ANEOPP (M. Tombelli,
    A. Boattini, G. Forti).  1.2-m Schmidt.

Orbital elements:
2000 SY2                                                             PHA 0.047
Id. ANEOPP (1977 observations)
Epoch 2000 Sept. 13.0 TT = JDT 2451800.5                Williams
M  82.55460              (2000.0)            P               Q
n   1.23857014     Peri.   47.70722     -0.85464853     +0.50930865
a   0.8587280      Node   162.14831     -0.51758843     -0.85107437
e   0.6419574      Incl.   19.21652     +0.04096473     -0.12758182
P   0.80           H   16.3           G   0.15           U   7
Residuals in seconds of arc
771007 260  0.2-  0.3+    000921 860  0.1+  0.0     000921 423  0.6-  0.2-
771007 260  0.2+  0.3-    000921 860  0.1-  0.2-    000921 349  0.3+  0.9+
000920 704  0.1+  1.2-    000921 860  0.2+  0.3-    000921 349  0.1-  1.2+
000920 704  0.6-  0.2+    000921 860  0.5+  0.2-    000921 349  1.6+  0.9+
000920 704  0.3-  0.3+    000921 860  0.4+  0.3-    000921 349  0.3+  0.4+
000920 704  0.7-  0.2+    000921 853  0.1+  0.5+    000921 349  0.1-  0.6+
000920 704  1.6-  0.9+    000921 853  0.3+  0.3-    000922 808  0.2-  0.2-
000921 860  0.4+  0.5-    000921 853  0.2+  0.2+    000922 860  0.2-  0.3+
000921 860  0.9+  0.1-    000921 467  0.3+  0.4+    000922 808  0.7+  0.8+
000921 860  0.3-  0.3-    000921 467  0.5+  0.2-    000922 860  0.2+  0.5+
000921 860  0.0   0.0     000921 467  0.6+  0.0     000922 860  0.7-  0.2+
000921 860  0.6+  0.0     000921 467  0.2+  0.1-    000922 423  0.5-  0.1+
000921 860  0.1-  0.2+    000921 423  0.0   0.8-    000922 423  0.5-  1.4-
000921 860  0.3+  0.3-    000921 423  0.5-  0.9-    000922 423  1.6-  1.3-

Ephemeris:
2000 SY2                 a,e,i = 0.86, 0.64, 19                  q = 0.3075
Date    TT    R. A. (2000) Decl.     Delta      r     Elong.  Phase     V
2000 09 23    01 41.39   -32 02.6    0.214    1.175   140.0    33.2    14.7
2000 09 28    00 59.64   -35 17.9    0.252    1.209   141.5    31.1    15.1
2000 10 03    00 27.39   -36 40.5    0.297    1.241   139.3    31.8    15.5
2000 10 08    00 03.56   -36 56.8    0.346    1.269   135.5    33.5    15.9
2000 10 13    23 46.45   -36 36.0    0.398    1.295   131.1    35.5    16.3
2000 10 18    23 34.47   -35 54.4    0.452    1.317   126.7    37.4    16.7
2000 10 23    23 26.40   -35 00.9    0.509    1.338   122.3    39.0    17.0
2000 10 28    23 21.33   -34 00.5    0.566    1.355   118.1    40.3    17.3
2000 11 02    23 18.62   -32 56.0    0.624    1.370   114.0    41.4    17.6
2000 11 07    23 17.75   -31 49.0    0.683    1.383   110.1    42.3    17.8
2000 11 12    23 18.35   -30 40.8    0.742    1.393   106.3    43.0    18.0
2000 11 17    23 20.12   -29 31.7    0.800    1.401   102.6    43.5    18.2
2000 11 22    23 22.86   -28 21.9    0.857    1.406    99.1    43.9    18.4
2000 11 27    23 26.42   -27 11.7    0.914    1.409    95.7    44.2    18.5
2000 12 02    23 30.68   -26 01.1    0.969    1.410    92.3    44.3    18.7

2000 12 12    23 40.86   -23 38.9    1.074    1.404    85.9    44.4    18.9
2000 12 22    23 52.80   -21 15.2    1.170    1.388    79.7    44.2    19.1
2001 01 01    00 06.17   -18 49.7    1.255    1.363    73.9    43.9    19.2
2001 01 11    00 20.73   -16 22.0    1.327    1.327    68.3    43.5    19.2
2001 01 21    00 36.34   -13 51.5    1.382    1.281    62.9    43.2    19.2

Gareth V. Williams           (C) Copyright 2000 MPC           M.P.E.C. 2000-S36

Read MPEC 2000-S35 Read MPEC 2000-S37


MPEC number:

Enter an MPEC number in one of the following forms:

  • 1997-B01 (the full form)
  • J97B01 (the packed version of the full form)
  • B01 (the abbreviated form)

Valid HTML 4.01!